Regional Weather Roundup
Issued by NWS

Home | Current Version | Previous Version | Text Only | Print | Product List | Glossary Off
Versions: 1 2 3 4 5 6 7 8 9 10 11 12 13 14 15 16 17 18 19 20 21 22 23 24 25 26 27 28 29 30 31 32 33 34 35 36 37 38 39 40 41 42 43 44 45 46 47 48 49 50

064
ASUS43 KLSX 181457
RWRMO

WEATHER SUMMARY FOR MISSOURI
NATIONAL WEATHER SERVICE SPRINGFIELD MO
900 AM CST SUN FEB 18 2018

NOTE: "FAIR" INDICATES FEW OR NO CLOUDS BELOW 12,000 FEET WITH NO
       SIGNIFICANT WEATHER AND/OR OBSTRUCTIONS TO VISIBILITY.
       CURRENT SKY AND/OR WEATHER CONDITIONS ARE NOT AVAILABLE FOR
       CHILLICOTHE AND FARMINGTON.

MOZ001>031-035>038-043-044-053-054-181600-
...NORTHERN AND WESTERN MISSOURI...

CITY           SKY/WX    TMP DP  RH WIND       PRES   REMARKS
KANSAS CTY INT CLOUDY    45  30  55 S23G31    30.03F
LEE`S SUMMIT   CLOUDY    43  34  70 S15G24    30.08F
ST JOSEPH      CLOUDY    42  34  73 S20       30.00F
CHILLICOTHE      N/A     36  29  75 SE7       30.10S

$$
MOZ066>068-077>081-088>096-101>105-181600-
...SOUTHWEST MISSOURI...

CITY           SKY/WX    TMP DP  RH WIND       PRES   REMARKS
SPRINGFIELD    MOSUNNY   40  36  86 SE20G26   30.13S
JOPLIN         CLOUDY    42  31  64 SE16G26   30.10F
BRANSON        CLOUDY    37  34  87 SE20G25   30.18S WCI  27

$$
MOZ032>034-039>042-045>050-055>058-069>072-181600-
...CENTRAL MISSOURI...

CITY           SKY/WX    TMP DP  RH WIND       PRES   REMARKS
COLUMBIA       NOT AVBL
JEFFERSON CITY CLOUDY    33  29  85 E9        30.19F WCI  25
ROLLA          CLOUDY    38  33  82 SE10      30.19S
SEDALIA        CLOUDY    42  35  76 SE17      30.13F
WARRENSBURG    CLOUDY    36  32  87 SE8       30.12R WCI  29

$$
MOZ051-052-059>065-181600-
...EAST CENTRAL MISSOURI...

CITY           SKY/WX    TMP DP  RH WIND       PRES   REMARKS
ST LOUIS INTL  CLOUDY    39  30  70 SE9       30.25S

$$
MOZ072>076-082>087-097>100-106>115-181600-
...SOUTH CENTRAL AND SOUTHEAST MISSOURI...

CITY           SKY/WX    TMP DP  RH WIND       PRES   REMARKS
CAPE GIRARDEAU FAIR      37  37 100 SE9       30.29S
POPLAR BLUFF   PTSUNNY   35  35 100 SE8       30.29S WCI  29
WEST PLAINS    CLOUDY    38  35  89 SE13G22   30.21F WCI  30

$$



USA.gov is the U.S. government's official web portal to all federal, state and local government web resources and services.